Hourly Data Report for January 08, 2022

BANCROFT AUTO
ONTARIO
Current Station Operator: ECCC - MSC

45°04'17.000" N
77°52'44.000" W
330.70 m
616I001
71294
WRK

Download Data

Hourly Data (January 2022)
Hourly Data Report for January 8, 2022
TIME
LST
Temp Definition
°C
Dew Point Definition
°C
Rel Hum Definition
%
Precip. Amount Definition
mm

Wind Dir Definition
10's deg

Wind Spd Definition
km/h
Visibility Definition
km
Stn Press Definition
kPa
Hmdx Definition


Wind Chill Definition


Weather Definition


00:00 -23.0 -24.9 84 0.0 34 3   98.60   -26 LegendNANA
01:00 -23.9 -26.3 81 0.0 34 5   98.66   -29 LegendNANA
02:00 -26.7 -29.5 77 0.0 33 4   98.78   -31 LegendNANA
03:00 -26.4 -29.0 79 0.0 35 2   98.92   -28 LegendNANA
04:00 -26.3 -28.8 80 0.0 0 1   98.90   -27 LegendNANA
05:00 -27.3 -30.0 78 0.0 28 2   98.95   -29 LegendNANA
06:00 -27.7 -30.3 78 0.0   0   99.09     LegendNANA
07:00 -29.2 -32.2 75 0.0   0   99.15     LegendNANA
08:00 -28.8 -31.4 78 0.0   0   99.25     LegendNANA
09:00 -25.9 -28.2 81 0.0   0   99.29     LegendNANA
10:00 -23.4 -26.3 77 0.0   0   99.32     LegendNANA
11:00 -17.9 -22.7 66 0.0 35 1   99.26   -19 LegendNANA
12:00 -12.3 -19.5 55 0.0 17 5   99.13   -16 LegendNANA
13:00 -11.6 -18.0 59 0.0 15 6   98.98   -15 LegendNANA
14:00 -10.0 -16.4 59 0.0 18 5   98.82   -13 LegendNANA
15:00 -10.2 -14.6 70 0.0 17 9   98.76   -15 LegendNANA
16:00 -9.8 -13.2 76 0.0 17 8   98.73   -14 LegendNANA
17:00 -10.2 -12.7 82 0.0 15 7   98.57   -14 LegendNANA
18:00 -10.8 -12.9 85 0.0 17 4   98.55   -13 LegendNANA
19:00 -10.9 -12.6 88 0.0 17 4   98.42   -13 LegendNANA
20:00 -10.2 -11.9 88 0.0 17 6   98.26   -14 LegendNANA
21:00 -9.2 -11.1 85 0.0 17 5   98.10   -12 LegendNANA
22:00 -8.4 -10.5 85 0.0 15 4   98.00   -11 LegendNANA
23:00 -7.6 -9.5 86 0.0 13 4   97.93   -10 LegendNANA

Notes on Data Quality.

Legend

  • E = Estimated
  • M = Missing
  • NA = Not Available*
  • [empty] = Indicates an unobserved value
Date modified: